This is the latest recevied weather packets stored in our database for station/object AD7ZD. If no packets are shown the sender has not sent any weather packets the latest 1 day(s).
| Time | Temp. | Humidity | Pressure | Rain* | Wind** | Luminosity | Snow |
|---|---|---|---|---|---|---|---|
| 1778024137 | 17.78° C | 44% | 1010 hPa | 0 mm | 3.13 m/s, 153° | 440 W/m² | - |
| 1778023834 | 18.33° C | 46% | 1010.2 hPa | 0 mm | 2.68 m/s, 56° | 443 W/m² | - |
| 1778023532 | 17.22° C | 46% | 1010.3 hPa | 0 mm | 1.34 m/s, 11° | 439 W/m² | - |
| 1778023229 | 17.78° C | 46% | 1010.1 hPa | 0 mm | 1.34 m/s, 70° | 498 W/m² | - |
| 1778022926 | 17.22° C | 47% | 1010.5 hPa | 0 mm | 0 m/s | 505 W/m² | - |
| 1778022625 | 16.67° C | 47% | 1010.3 hPa | 0 mm | 1.79 m/s, 32° | 361 W/m² | - |
| 1778022322 | 17.22° C | 48% | 1010.5 hPa | 0 mm | 2.68 m/s, 53° | 571 W/m² | - |
| 1778022018 | 17.22° C | 48% | 1010.6 hPa | 0 mm | 3.13 m/s, 73° | 355 W/m² | - |
| 1778021715 | 17.78° C | 46% | 1010.5 hPa | 0 mm | 0 m/s | 476 W/m² | - |
| 1778021411 | 18.33° C | 45% | 1010.8 hPa | 0 mm | 1.34 m/s, 264° | 522 W/m² | - |
| 1778021108 | 17.78° C | 45% | 1010.5 hPa | 0 mm | 0 m/s | 520 W/m² | - |
| 1778020805 | 16.11° C | 48% | 1010.5 hPa | 0 mm | 1.79 m/s, 131° | 459 W/m² | - |
| 1778020502 | 16.11° C | 49% | 1010.6 hPa | 0 mm | 3.13 m/s, 137° | 349 W/m² | - |
| 1778020198 | 16.67° C | 49% | 1010.5 hPa | 0 mm | 2.24 m/s, 76° | 604 W/m² | - |
| 1778019895 | 16.67° C | 48% | 1010.8 hPa | 0 mm | 3.13 m/s, 206° | 597 W/m² | - |
| 1778019590 | 16.67° C | 48% | 1010.8 hPa | 0 mm | 3.58 m/s, 259° | 573 W/m² | - |
| 1778019288 | 16.67° C | 51% | 1010.6 hPa | 0 mm | 1.34 m/s, 199° | 603 W/m² | - |
| 1778018985 | 16.67° C | 50% | 1010.8 hPa | 0 mm | 2.68 m/s, 239° | 513 W/m² | - |
| 1778018682 | 17.22° C | 49% | 1010.9 hPa | 0 mm | 2.24 m/s, 213° | 689 W/m² | - |
| 1778018380 | 16.11° C | 52% | 1010.9 hPa | 0 mm | 2.68 m/s, 173° | 543 W/m² | - |
| 1778018078 | 16.11° C | 53% | 1010.8 hPa | 0 mm | 2.68 m/s, 163° | 612 W/m² | - |
| 1778017775 | 16.11° C | 56% | 1010.8 hPa | 0 mm | 1.34 m/s, 234° | 652 W/m² | - |
| 1778017473 | 16.67° C | 54% | 1011.1 hPa | 0 mm | 2.68 m/s, 152° | 631 W/m² | - |
| 1778017170 | 15.56° C | 53% | 1011.2 hPa | 0 mm | 2.24 m/s, 152° | 472 W/m² | - |
| 1778016867 | 15.56° C | 53% | 1011.3 hPa | 0 mm | 1.34 m/s, 187° | 689 W/m² | - |
* Rain latest hour (hover to see other rain measurements)
** Current wind speed in m/s (hover to see current wind gust speed)